Weather History for 71786 - March, 2013

Change the Weather History Date:

Tuesday, March 12, 2013

  Actual Average Record
Temperature  
Mean Temperature 20 °F -  
Max Temperature 24 °F - - ()
Min Temperature 15 °F - - ()
Degree Days  
Heating Degree Days 46    
Moisture  
Dew Point 17 °F    
Average Humidity 89    
Maximum Humidity 96    
Minimum Humidity 76    
Precipitation  
Precipitation 0.00 in - - ()
Sea Level Pressure  
Sea Level Pressure 30.15 in    
Wind  
Wind Speed 10 mph ()    
Max Wind Speed 22 mph    
Max Gust Speed -    
T = Trace of Precipitation, MM = Missing Value Source: Averaged Metar Reports

Daily Weather History Graph

Daily Weather History Graph

Search for Another Location

Airport or City:

Trip Planner

Search our weather history database for the weather conditions in past years. The results will help you decide how hot, cold, wet, or windy it might be!

Date:

Astronomy

Mar. 12, 2013 Rise Set
Actual Time 8:05 AM MDT 7:45 PM MDT
Civil Twilight 7:32 AM MDT 8:18 PM MDT
Nautical Twilight 6:53 AM MDT 8:57 PM MDT
Astronomical Twilight 6:13 AM MDT 9:37 PM MDT
Moon 8:03 AM MDT (3/12) 9:20 PM MDT (3/12)
Length of Visible Light 12h 46m
Length of Day
11h 40m
New Moon, 1% of the Moon is Illuminated
Mar 12
New Moon
Mar 19
First Quarter
Mar 27
Full
Apr 2
Last Quarter
Apr 10
New

Hourly Weather History & Observations

Time (MDT) Temp. Windchill Dew Point Humidity Pressure Visibility Wind Dir Wind Speed Gust Speed Precip Events Conditions
12:00 AM 18 °F - 15 °F 81% 30.30 in - SW 8.1 mph - -  
12:00 AM 18.3 °F 8.2 °F 14.7 °F 86% 30.30 in - SW 8.1 mph - N/A   Unknown
1:00 AM 17.8 °F - 12.9 °F 81% 30.29 in - WSW 2.3 mph - N/A   Unknown
2:00 AM 16.2 °F 7.6 °F 11.5 °F 82% 30.27 in - ENE 5.8 mph - N/A   Unknown
3:00 AM 15.8 °F 10.2 °F 11.3 °F 82% 30.27 in - East 3.5 mph - N/A   Unknown
4:00 AM 15.4 °F - 11.1 °F 83% 30.25 in - ESE 1.2 mph - N/A   Unknown
5:00 AM 15.8 °F 2.7 °F 12.2 °F 86% 30.22 in - West 11.5 mph - N/A   Unknown
6:00 AM 17 °F - 13 °F 76% 30.19 in - WSW 16.1 mph - -  
6:00 AM 16.5 °F 1.3 °F 12.7 °F 85% 30.19 in - WSW 16.1 mph - N/A   Unknown
7:00 AM 16.7 °F 1.5 °F 13.6 °F 88% 30.19 in - West 16.1 mph - N/A   Unknown
8:00 AM 16.3 °F 10.8 °F 13.5 °F 88% 30.18 in - ESE 3.5 mph - N/A   Unknown
9:00 AM 16.5 °F 1.3 °F 14.0 °F 90% 30.16 in - WSW 16.1 mph - N/A   Unknown
10:00 AM 17.1 °F 5.8 °F 14.5 °F 90% 30.14 in - WSW 9.2 mph - N/A   Unknown
11:00 AM 18.0 °F 2.6 °F 15.6 °F 91% 30.13 in - West 17.3 mph - N/A   Unknown
12:00 PM 18 °F - 16 °F 89% 30.12 in - West 15.0 mph - -  
12:00 PM 18.5 °F 4.3 °F 16.2 °F 91% 30.12 in - West 15.0 mph - N/A   Unknown
1:00 PM 19.0 °F 3.6 °F 16.7 °F 91% 30.12 in - West 18.4 mph - N/A   Unknown
2:00 PM 19.9 °F 3.9 °F 17.8 °F 91% 30.11 in - WSW 20.7 mph - N/A   Unknown
3:00 PM 20.7 °F 5.7 °F 18.7 °F 92% 30.09 in - WSW 18.4 mph - N/A   Unknown
4:00 PM 23.0 °F 7.6 °F 21.0 °F 92% 30.06 in - WSW 21.9 mph - N/A   Unknown
5:00 PM 23.5 °F 8.3 °F 21.6 °F 92% 30.06 in - West 21.9 mph - N/A   Unknown
6:00 PM 24 °F - 22 °F 89% 30.06 in - West 19.6 mph - -  
6:00 PM 23.9 °F 9.5 °F 22.1 °F 93% 30.06 in - West 19.6 mph - N/A   Unknown
7:00 PM 23.7 °F 10.5 °F 22.1 °F 94% 30.07 in - West 16.1 mph - N/A   Unknown
8:00 PM 23.4 °F 10.1 °F 22.1 °F 95% 30.06 in - West 16.1 mph - N/A   Unknown
9:00 PM 24.1 °F 10.6 °F 23.0 °F 96% 30.06 in - West 17.3 mph - N/A   Unknown
10:00 PM 24.4 °F 11.5 °F 23.4 °F 96% 30.05 in - West 16.1 mph - N/A   Unknown
11:00 PM 24.8 °F 12.9 °F 23.7 °F 96% 30.04 in - West 13.8 mph - N/A   Unknown